Tracking 30995 objects as of 5-Jul-2025
HD Live streaming from Space Station
objects crossing your sky now

STARLINK-5768

Track STARLINK-5768 now!
10-day predictions
STARLINK-5768 is classified as:


NORAD ID: 57145
Int'l Code: 2023-090AW
Perigee: 565.4 km
Apogee: 567.1 km
Inclination: 43.0 °
Period: 95.8 minutes
Semi major axis: 6937 km
RCS: Unknown
Launch date: June 23, 2023
Source: United States (US)
Launch site: AIR FORCE EASTERN TEST RANGE (AFETR)
Your satellite tracking list
EUTE 25A (HB 5)
Track 1 satellite(s)




NASA's NSSDC Master Catalog

Two Line Element Set (TLE):
1 57145U 23090AW  25186.32159440  .00000327  00000-0  39267-4 0  9999
2 57145  43.0030 165.6824 0001237 282.1355  77.9349 15.02535708113162
Source of the keplerian elements: AFSPC